DW6561 Weather Reports


time (UTC)temp
C
wind
direction
speed
KPH
gust
KPH
rain 1hr
cm
rain 24hr
cm
rain mn
cm
humidity
%
barometer
mb
20260510131518 11 225 0.0 0.0 0.00 0.00 0.00 61 1015.1
20260510130013 11 225 0.0 0.0 0.00 0.00 0.00 60 1014.7
20260510124516 11 225 0.0 0.0 0.00 0.00 0.00 61 1014.9
20260510123014 11 225 0.0 0.0 0.00 0.00 0.00 60 1014.8
20260510121506 11 224 0.0 3.2 0.00 0.00 0.00 60 1014.8
20260510120020 12 178 1.6 4.8 0.00 0.00 0.00 61 1015.0
20260510114509 12 227 0.0 4.8 0.00 0.00 0.00 58 1015.1
20260510113014 12 211 0.0 3.2 0.00 0.00 0.00 58 1015.1
20260510111523 12 181 0.0 4.8 0.00 0.00 0.00 58 1015.1
20260510110015 12 197 0.0 1.6 0.00 0.00 0.00 58 1015.2
20260510104512 12 221 0.0 0.0 0.00 0.00 0.00 58 1015.2
20260510103008 12 223 0.0 0.0 0.00 0.00 0.00 57 1015.2
20260510101513 12 210 0.0 0.0 0.00 0.00 0.00 57 1015.2
20260510100005 13 224 0.0 3.2 0.00 0.00 0.00 56 1015.2
20260510094505 13 210 0.0 3.2 0.00 0.00 0.00 56 1015.2
20260510093003 13 198 0.0 0.0 0.00 0.00 0.00 56 1015.3
20260510091503 13 198 0.0 4.8 0.00 0.00 0.00 55 1015.5
20260510090002 13 163 0.0 1.6 0.00 0.00 0.00 54 1015.7
20260510084503 13 163 0.0 1.6 0.00 0.00 0.00 53 1015.7
20260510083008 13 163 0.0 0.0 0.00 0.00 0.00 52 1015.8
20260510081511 13 163 0.0 0.0 0.00 0.00 0.00 52 1015.9
20260510080003 13 163 0.0 0.0 0.00 0.00 0.00 51 1015.9
20260510071510 14 163 0.0 0.0 0.00 0.00 0.00 50 1016.2
20260510064512 15 163 0.0 0.0 0.00 0.00 0.00 48 1016.1
20260510063013 15 163 0.0 0.0 0.00 0.00 0.00 48 1016.1
20260510061504 15 163 0.0 0.0 0.00 0.00 0.00 46 1015.9
20260510054516 16 163 0.0 0.0 0.00 0.00 0.00 44 1016.2
20260510053004 17 163 0.0 0.0 0.00 0.00 0.00 42 1016.1
20260510051501 17 163 0.0 0.0 0.00 0.00 0.00 41 1016.2
20260510050007 18 163 0.0 0.0 0.00 0.00 0.00 39 1016.3
20260510043003 18 162 1.6 6.4 0.00 0.00 0.00 37 1016.6
20260510041505 18 95 0.0 0.0 0.00 0.00 0.00 41 1016.5
20260510040006 19 95 0.0 1.6 0.00 0.00 0.00 38 1016.4
20260510034512 19 95 0.0 1.6 0.00 0.00 0.00 38 1016.3
20260510033017 20 95 0.0 0.0 0.00 0.00 0.00 36 1016.5
20260510031516 20 95 0.0 0.0 0.00 0.00 0.00 36 1016.3
20260510030007 21 95 0.0 0.0 0.00 0.00 0.00 37 1016.4
20260510024510 21 95 0.0 0.0 0.00 0.00 0.00 36 1016.4
20260510023022 22 95 0.0 0.0 0.00 0.00 0.00 35 1016.5
20260510021520 22 95 0.0 3.2 0.00 0.00 0.00 34 1016.6
20260510020022 22 121 0.0 0.0 0.00 0.00 0.00 32 1016.6
20260510014517 23 121 0.0 1.6 0.00 0.00 0.00 31 1016.8
20260510013006 23 121 0.0 1.6 0.00 0.00 0.00 32 1016.8
20260510011522 23 103 0.0 4.8 0.00 0.00 0.00 31 1017.1
20260510010009 24 94 0.0 3.2 0.00 0.00 0.00 31 1017.2
20260510004507 24 93 0.0 4.8 0.00 0.00 0.00 32 1017.3
20260510003004 25 90 1.6 6.4 0.00 0.00 0.00 31 1017.4
20260510001506 25 352 0.0 4.8 0.00 0.00 0.00 33 1017.5
20260510000004 25 90 0.0 4.8 0.00 0.00 0.00 32 1017.5
20260509234518 25 38 0.0 4.8 0.00 0.00 0.00 31 1017.6
20260509233028 25 308 0.0 3.2 0.00 0.00 0.00 30 1017.7
20260509231514 25 91 0.0 6.4 0.00 0.00 0.00 30 1017.9
20260509230004 25 90 0.0 4.8 0.00 0.00 0.00 32 1018.0
20260509224513 25 327 0.0 6.4 0.00 0.00 0.00 32 1018.3
20260509223018 25 295 1.6 4.8 0.00 0.00 0.00 32 1018.5
20260509221516 25 327 0.0 4.8 0.00 0.00 0.00 33 1018.7
20260509220016 25 315 0.0 3.2 0.00 0.00 0.00 34 1018.9
20260509214507 25 79 0.0 4.8 0.00 0.00 0.00 33 1019.0
20260509213010 25 272 0.0 4.8 0.00 0.00 0.00 34 1019.1
20260509211513 25 154 0.0 4.8 0.00 0.00 0.00 35 1019.3
20260509210017 24 131 0.0 4.8 0.00 0.00 0.00 36 1019.5
20260509204518 24 306 0.0 6.4 0.00 0.00 0.00 35 1019.5
20260509203009 24 112 1.6 4.8 0.00 0.00 0.00 37 1019.7
20260509201514 24 325 0.0 4.8 0.00 0.00 0.00 37 1019.8
20260509200016 23 160 0.0 4.8 0.00 0.00 0.00 41 1019.8
20260509194520 23 95 0.0 4.8 0.00 0.00 0.00 39 1019.9
20260509193025 23 113 3.2 8.0 0.00 0.00 0.00 39 1020.2
20260509191526 23 248 1.6 11.3 0.00 0.00 0.00 39 1020.3
20260509190018 23 151 0.0 4.8 0.00 0.00 0.00 42 1020.5
20260509184526 22 132 0.0 6.4 0.00 0.00 0.00 35 1020.7
20260509183014 22 46 0.0 4.8 0.00 0.00 0.00 36 1020.8
20260509181524 22 196 1.6 8.0 0.00 0.00 0.00 37 1020.8
20260509180027 22 64 0.0 3.2 0.00 0.00 0.00 40 1020.9
20260509174521 21 105 1.6 8.0 0.00 0.00 0.00 40 1021.0
20260509173026 21 107 0.0 11.3 0.00 0.00 0.00 41 1021.1
20260509171533 20 258 0.0 3.2 0.00 0.00 0.00 45 1021.2
20260509170024 19 178 1.6 9.7 0.00 0.00 0.00 45 1021.4
20260509164525 18 144 3.2 6.4 0.00 0.00 0.00 46 1021.3
20260509161531 17 182 4.8 11.3 0.00 0.00 0.00 51 1021.6
20260509160008 17 184 4.8 14.5 0.00 0.00 0.00 53 1021.6
20260509154510 16 216 4.8 16.1 0.00 0.00 0.00 56 1021.7
20260509153010 16 215 3.2 11.3 0.00 0.00 0.00 58 1021.6
20260509151503 15 80 1.6 6.4 0.00 0.00 0.00 60 1021.7
20260509150010 14 307 0.0 9.7 0.00 0.00 0.00 62 1021.4
20260509144518 13 153 0.0 12.9 0.00 0.00 0.00 66 1021.3
20260509143010 13 149 0.0 9.7 0.00 0.00 0.00 68 1021.3
20260509141507 12 188 1.6 9.7 0.00 0.00 0.00 69 1021.2
20260509140005 12 145 3.2 9.7 0.00 0.00 0.00 70 1021.1
20260509134504 11 155 3.2 12.9 0.00 0.00 0.00 72 1020.9
20260509133011 11 190 3.2 9.7 0.00 0.00 0.00 74 1020.8